Printer-friendly version
Follow the MPC on Twitter Follow the MPC on Facebook The MPC blog
Minor Planet Center

MPEC 2006-T33 : 2006 RY102

The following Minor Planet Electronic Circular may be linked-to from your own Web pages, but must not otherwise be redistributed electronically.

A form allowing access to any MPEC is at the bottom of this page.


Read MPEC 2006-T32 Read MPEC 2006-T34


M.P.E.C. 2006-T33                                Issued 2006 Oct. 5, 20:05 UT

     The Minor Planet Electronic Circulars contain information on unusual
         minor planets and routine data on comets.  They are published
   on behalf of Commission 20 of the International Astronomical Union by the
          Minor Planet Center, Smithsonian Astrophysical Observatory,
                          Cambridge, MA 02138, U.S.A.

             Prepared using the Tamkin Foundation Computer Network

                              MPC@CFA.HARVARD.EDU
          URL http://cfa-www.harvard.edu/iau/mpc.html  ISSN 1523-6714

                                  2006 RY102

Observations:
     K06RA2Y   1992 11 25.59479 04 38 35.12 +11 03 35.3          17.5   ET033372
     K06RA2Y   1992 11 25.60555 04 38 34.59 +11 03 36.7                 ET033372
     K06RA2Y  C2004 07 13.62582 21 11 02.24 -29 07 21.8          19.4 R ET033E12
     K06RA2Y  C2004 07 13.64169 21 11 01.98 -29 07 25.0          18.5 R ET033E12
     K06RA2Y  C2004 07 13.65766 21 11 01.40 -29 07 25.1          20.0 R ET033E12
     K06RA2Y  C2004 07 13.67375 21 11 00.97 -29 07 27.7          19.3 R ET033E12
     K06RA2Y  C2005 07 04.43225 22 51 14.06 -25 22 12.9          19.8   ET033644
     K06RA2Y  C2005 07 04.44350 22 51 14.00 -25 22 15.2          19.5   ET033644
     K06RA2Y  C2005 07 04.45484 22 51 13.93 -25 22 17.5          19.6   ET033644
     K06RA2Y  C2005 07 19.40192 22 49 00.04 -26 19 42.6          20.0   ET033644
     K06RA2Y  C2005 07 19.44151 22 48 59.48 -26 19 52.3          19.5   ET033644
     K06RA2Y  C2005 07 19.45783 22 48 59.24 -26 19 56.4          19.5   ET033644
     K06RA2Y  C2005 07 27.39888 22 46 55.82 -26 52 21.4          19.2   ET033644
     K06RA2Y  C2005 07 27.41978 22 46 55.44 -26 52 26.7          19.6   ET033644
     K06RA2Y  C2005 07 27.44321 22 46 55.05 -26 52 32.2          19.6   ET033644
     K06RA2Y  C2005 08 04.45168 22 44 17.92 -27 25 17.5          19.2   ET033644
     K06RA2Y  C2005 08 04.47270 22 44 17.45 -27 25 22.9          19.0   ET033644
     K06RA2Y  C2005 08 04.49549 22 44 16.95 -27 25 28.2          19.2   ET033644
     K06RA2Y  C2005 08 28.54657 22 34 11.17 -28 52 41.0          19.3 V ET033E12
     K06RA2Y  C2005 08 28.55551 22 34 10.92 -28 52 42.1          19.0 V ET033E12
     K06RA2Y  C2005 08 28.56447 22 34 10.63 -28 52 44.1          19.3 V ET033E12
     K06RA2Y  C2005 08 28.57294 22 34 10.41 -28 52 45.8          19.0 V ET033E12
     K06RA2Y  C2006 08 14.47490 00 38 36.07 -19 12 53.7          18.5 R ET033644
     K06RA2Y  C2006 08 14.48724 00 38 35.94 -19 12 57.0          18.4 R ET033644
     K06RA2Y  C2006 08 14.49835 00 38 35.82 -19 12 59.9          18.3 R ET033644
     K06RA2Y* C2006 09 14.36640 00 28 46.91 -21 23 01.5          18.5 R ET033644
     K06RA2Y  C2006 09 14.38771 00 28 46.35 -21 23 05.9          18.6 R ET033644
     K06RA2Y  C2006 09 14.40894 00 28 45.77 -21 23 10.9          18.6 R ET033644
     K06RA2Y  C2006 09 26.31461 00 23 20.36 -22 02 03.9          18.1 V ET033703
     K06RA2Y  C2006 09 26.32200 00 23 20.11 -22 02 04.5          18.4 V ET033703
     K06RA2Y  C2006 09 26.32941 00 23 19.89 -22 02 05.3          18.4 V ET033703
     K06RA2Y  C2006 09 26.33681 00 23 19.68 -22 02 06.9          18.4 V ET033703
     K06RA2Y  C2006 10 03.53419 00 19 56.35 -22 19 37.1          18.6 V ET033E12
     K06RA2Y  C2006 10 03.54399 00 19 55.99 -22 19 39.2          19.6 V ET033E12
     K06RA2Y  C2006 10 03.55388 00 19 55.74 -22 19 39.5          18.8 V ET033E12
     K06RA2Y  C2006 10 03.56329 00 19 55.52 -22 19 40.4          18.4 V ET033E12

Observer details:
644 Palomar Mountain/NEAT.  Observers M. Brown, R. Bambery, K. Lawrence,
    M. Hicks, E. Helin, R. Thicksten.  1.2-m Schmidt + CCD.
703 Catalina Sky Survey.  Observer R. E. Hill.  Measurers E. C. Beshore,
    E. J. Christensen, G. J. Garradd, A. R. Gibbs, A. D. Grauer, R. E. Hill,
    R. A. Kowalski, S. M. Larson, R. H. McNaught.  0.68-m Schmidt + CCD.
E12 Siding Spring Survey.  Observer R. H. McNaught.  Measurers E. C. Beshore,
    E. J. Christensen, G. J. Garradd, A. R. Gibbs, A. D. Grauer, R. E. Hill,
    R. A. Kowalski, S. M. Larson, R. H. McNaught.  0.5-m Uppsala Schmidt + CCD.
372 Geisei.  Observer T. Seki.  0.60-m f/3.5 reflector.

Orbital elements:
2006 RY102
Epoch 2006 Sept. 22.0 TT = JDT 2454000.5                MPC
M 307.60418              (2000.0)            P               Q
n   0.06235060     Peri.  345.04937     +0.16122948     -0.93380036
a   6.2985747      Node    94.88387     +0.93519122     +0.04115479
e   0.2752878      Incl.   18.69756     +0.31531325     +0.35541972
P  15.81           H   11.1           G   0.15           U   2
Residuals in seconds of arc
921125 372  0.7+  0.5+    050727 644  0.0   0.2+    060814 644  0.2+  0.2-
921125 372  1.5-  1.3+    050727 644  0.0   0.1+    060914 644  0.3-  0.2-
040713 E12 (1.6+  2.4-)   050727 644  0.5+  0.4+    060914 644  0.2-  0.1+
040713 E12 (3.1+  2.5-)   050804 644  0.1+  0.3+    060914 644  0.3-  0.2-
040713 E12  0.4+  0.5+    050804 644  0.1+  0.0     060926 703  0.4+  0.8-
040713 E12  0.3-  1.0+    050804 644  0.1+  0.2+    060926 703  0.1-  0.2-
050704 644  0.0   0.1+    050828 E12  0.0   0.5-    060926 703  0.2-  0.2+
050704 644  0.1-  0.3+    050828 E12  0.0   0.1+    060926 703  0.1-  0.1-
050704 644  0.3-  0.4+    050828 E12  0.5-  0.3-    061003 E12  0.7+  0.3-
050719 644  0.1+  0.5+    050828 E12  0.3-  0.5-    061003 E12  0.3-  1.2-
050719 644  0.0   0.4+    060814 644  0.1+  0.0     061003 E12  0.2+  0.2-
050719 644  0.2-  0.3+    060814 644  0.2+  0.2-    061003 E12  0.9+  0.1+

Ephemeris:
2006 RY102               a,e,i = 6.30, 0.28, 19                  q = 4.5647
Date    TT    R. A. (2000) Decl.     Delta      r     Elong.  Phase     V
2006 10 02    00 20.66   -22 16.3    4.681    5.599   154.2     4.5    18.6
2006 10 12    00 16.05   -22 33.4    4.711    5.580   147.6     5.5    18.6
2006 10 22    00 11.85   -22 39.5    4.767    5.560   139.4     6.7    18.7
2006 11 01    00 08.36   -22 34.1    4.846    5.541   130.4     7.8    18.8
2006 11 11    00 05.81   -22 17.5    4.944    5.522   121.2     8.8    18.9
2006 11 21    00 04.36   -21 50.7    5.057    5.502   111.9     9.6    19.0
2006 12 01    00 04.08   -21 14.8    5.181    5.483   102.8    10.1    19.0
2006 12 11    00 05.00   -20 31.2    5.311    5.464    93.7    10.4    19.1
2006 12 21    00 07.07   -19 41.3    5.444    5.445    84.9    10.4    19.1
2006 12 31    00 10.24   -18 46.2    5.575    5.426    76.3    10.1    19.2
2007 01 10    00 14.39   -17 47.2    5.700    5.407    67.9     9.7    19.2

Timothy B. Spahr             (C) Copyright 2006 MPC           M.P.E.C. 2006-T33

Read MPEC 2006-T32 Read MPEC 2006-T34


MPEC number:

Enter an MPEC number in one of the following forms:

  • 1997-B01 (the full form)
  • J97B01 (the packed version of the full form)
  • B01 (the abbreviated form)

Valid HTML 4.01!